Location: Unspecified
(40.7945°N, 111.1337°W)
Time: 14:04:44
(UTC-06:00)

Hubble Space Telescope - Visible Passes

Search period start: 25 May 2017 00:00
Search period end: 04 June 2017 00:00
Orbit: 538 x 541 km, 28.5° (Epoch: 24 May)

Date Brightness Start Highest point End Pass type
(mag) Time Alt. Az. Time Alt. Az. Time Alt. Az.
29 May 2.8 21:41:17 10° S 21:42:30 11° SSE 21:43:26 10° SSE visible
30 May 2.8 21:30:34 10° SSW 21:32:18 12° S 21:34:01 10° SE visible
31 May 2.8 21:20:05 10° SSW 21:22:06 13° S 21:24:07 10° SE visible
01 Jun 3.1 22:50:26 10° SW 22:50:50 11° SSW 22:50:50 11° SSW visible
02 Jun 3.0 22:40:36 10° SSW 22:41:18 11° SSW 22:41:18 11° SSW visible
03 Jun 3.1 22:31:05 10° SSW 22:31:42 11° SSW 22:31:42 11° SSW visible
